Retour au catalogue

GNOMES-3

ActifScienceSSO
NORAD 52158·PAYLOAD·🇺🇸 United States

Lancé Apr 1, 2022 depuis Cape Canaveral Space Force Station

Loading…

Prochains Passages (prochaines 24 heures)

TLE

FraisSource: Space-Track

Époque: Sep 14, 2026, 04:01 UTC

1 52158U 22033B   26257.16792418  .00001290  00000-0  15604-3 0  9992
2 52158  97.8166 331.8713 0011561  38.6076 321.5963 14.85349620240546

Suivez GNOMES-3 en temps réel avec AllMySat

Download on the App Store